This is the latest recevied weather packets stored in our database for station/object KD5BIG-13. If no packets are shown the sender has not sent any weather packets the latest 10 day(s).
| Time | Temp. | Humidity | Pressure | Rain* | Wind** | Luminosity | Snow |
|---|---|---|---|---|---|---|---|
| 1777852917 | 21.67° C | 61% | 1021.5 hPa | 0 mm | - | 27 W/m² | - |
| 1777852615 | 21.67° C | 58% | 1021.4 hPa | 0 mm | - | 30 W/m² | - |
| 1777852311 | 22.22° C | 57% | 1021.7 hPa | 0 mm | - | 32 W/m² | - |
| 1777852009 | 22.78° C | 57% | 1021.6 hPa | 0 mm | - | 34 W/m² | - |
| 1777851707 | 22.78° C | 52% | 1021.6 hPa | 0 mm | - | 35 W/m² | - |
| 1777851404 | 22.78° C | 48% | 1021.7 hPa | 0 mm | - | 37 W/m² | - |
| 1777851099 | 23.33° C | 49% | 1021.9 hPa | 0 mm | - | 39 W/m² | - |
| 1777850797 | 23.33° C | 48% | 1022 hPa | 0 mm | - | 40 W/m² | - |
| 1777850494 | 23.33° C | 42% | 1022 hPa | 0 mm | - | 42 W/m² | - |
| 1777850192 | 23.33° C | 45% | 1021.9 hPa | 0 mm | - | 44 W/m² | - |
| 1777849888 | 23.33° C | 44% | 1022 hPa | 0 mm | - | 45 W/m² | - |
| 1777849585 | 23.89° C | 43% | 1022 hPa | 0 mm | - | 46 W/m² | - |
| 1777849282 | 23.89° C | 46% | 1021.9 hPa | 0 mm | - | 47 W/m² | - |
| 1777848980 | 23.89° C | 45% | 1022 hPa | 0 mm | - | 49 W/m² | - |
| 1777848679 | 23.89° C | 45% | 1022.1 hPa | 0 mm | - | 50 W/m² | - |
| 1777848377 | 23.89° C | 45% | 1022 hPa | 0 mm | - | 52 W/m² | - |
| 1777848075 | 23.89° C | 45% | 1022.2 hPa | 0 mm | - | 53 W/m² | - |
| 1777847773 | 23.89° C | 42% | 1022.2 hPa | 0 mm | - | 54 W/m² | - |
| 1777847468 | 23.89° C | 44% | 1022.1 hPa | 0 mm | - | 57 W/m² | - |
| 1777847166 | 23.89° C | 45% | 1022.4 hPa | 0 mm | - | 57 W/m² | - |
| 1777846864 | 23.89° C | 45% | 1022.3 hPa | 0 mm | - | 60 W/m² | - |
| 1777846562 | 23.89° C | 42% | 1022.3 hPa | 0 mm | - | 63 W/m² | - |
| 1777846259 | 23.89° C | 42% | 1022.2 hPa | 0 mm | - | 65 W/m² | - |
| 1777845955 | 23.89° C | 43% | 1022.4 hPa | 0 mm | - | 68 W/m² | - |
| 1777845652 | 24.44° C | 41% | 1022.3 hPa | 0 mm | - | 71 W/m² | - |
* Rain latest hour (hover to see other rain measurements)
** Current wind speed in m/s (hover to see current wind gust speed)